Regional Weather Roundup
Issued by NWS

Home | Current Version | Previous Version | Graphics & Text | Print | Product List | Glossary On
Versions: 1 2 3 4 5 6 7 8 9 10 11 12 13 14 15 16 17 18 19 20 21 22 23 24 25 26 27 28 29 30 31 32 33 34 35 36 37 38 39 40 41 42 43 44 45 46 47 48 49 50
000
ASUS45 KBOI 280410
RWRID
WEATHER ROUNDUP FOR IDAHO
NATIONAL WEATHER SERVICE BOISE ID
900 PM MST SAT DEC 27 2014

NOTE: "FAIR" INDICATES FEW OR NO CLOUDS BELOW 12000 FEET
WITH NO SIGNIFICANT WEATHER AND/OR OBSTRUCTIONS TO VISIBILITY

IDZ012-014-280500-
SOUTHWEST IDAHO


CITY           SKY/WX    TMP DP  RH WIND       PRES   REMARKS
BOISE          LGT SNOW  29  27  92 SE8       30.18F VSB 1   WCI  21
CALDWELL       CLOUDY    30  25  80 NE10      30.20F WCI  21
MOUNTAIN HOME  LGT SNOW  30  27  86 E8        30.19F FOG     WCI  23
$$

IDZ016-017-280500-
SOUTHCENTRAL IDAHO


CITY           SKY/WX    TMP DP  RH WIND       PRES   REMARKS
BURLEY         CLOUDY    29  16  58 SW16      30.17S WCI  17
JEROME         CLOUDY    30  23  75 S7        30.18F WCI  23
TWIN FALLS     CLOUDY    31  20  63 S10       30.17F WCI  22
$$

IDZ019>023-280500-
SOUTHEAST IDAHO


CITY           SKY/WX    TMP DP  RH WIND       PRES   REMARKS
IDAHO FALLS    LGT SNOW  23  20  88 S12       30.15F FOG     WCI  12
POCATELLO      FLURRIES  26  19  74 S18       30.17F WCI  13
REXBURG        LGT SNOW  17  15  92 CALM      30.14F VSB 1
$$

IDZ006-010-011-018-031-032-280500-
CENTRAL IDAHO MOUNTAINS


CITY           SKY/WX    TMP DP  RH WIND       PRES   REMARKS
MCCALL         LGT SNOW  22  19  89 SE7       30.02F FOG     WCI  13
HAILEY         CLOUDY    18  10  73 CALM      30.13F
STANLEY          N/A     12   6  77 CALM      30.01F
SALMON         CLOUDY    19  16  86 N5        30.05F WCI  13
CHALLIS        CLOUDY    15  10  80 CALM      30.05F
$$

IDZ002-004-006-007-026-280500-
NORTHERN IDAHO


CITY           SKY/WX    TMP DP  RH WIND       PRES   REMARKS
LEWISTON       LGT RAIN  38  32  79 S17       29.95F WCI  28
LOWELL           N/A     32  31  96 NW3       30.03F
COEUR D`ALENE  CLOUDY    34  32  93 CALM      29.86F
MULLAN PASS    SNOW      23  19  85 VRB3      29.75F VSB 1/2
$$


USA.gov is the U.S. government's official web portal to all federal, state and local government web resources and services.